FLOCK 3P-23 (42018 NORAD) Tracking and Keplerian Element Data

This shows tracking and keplerian element data for the satellite.

Feedback or suggestion? Click here.




ElementValue
Catalog42018
NameFLOCK 3P-23
Epoch Orbit5424
Epoch Day45.853209
Epoch Year2018
RAAN111.2937
Inclination97.465
Eccentricity0.0010038
Argument of Perigee66.5641
Mean Anonmoly293.665
Mean Motion15.23938394
Decay Rate1.409E-05
L11 42018U 17008BY 18045.85320900 .00001409 00000-0 61200-4 0 9993
L22 42018 97.4650 111.2937 0010038 66.5641 293.6650 15.23938394 54245

Live tracking and technical data element details for FLOCK 3P-23 (NORAD 42018). FLOCK 3P-23 can be tracked NOW for your location showing map with azimuth and elevation plus other details from your city location.

Track the satellite on the map from your city or location and see movement details for azimuth, elevation, latitude, longitude, range, height, and movement on the map or in text.







IsCatalogInMostPopularTable: catalog: 42018, numindb: 138
Update: records affected: 1



GetName: 42018 FLOCK 3P-23

Hit Count: updated at: Mon, 19 Nov 2018 13:04:46 GMT